RYR3AF LIBR-EBCI

Flight info

Callsign RYR3AF
Flight time N/A
Altitude 18000
Route FASAN P92 BAR/N0442F380 DCT BEFHE DCT RUPAX DCT ERPOG DCT ARSOB DCT NUTRO DCT LAPVO DCT BRENO DCT KONIN DCT ERNAS M726 UPALA L610 INBED DCT TEKTU DCT TESGA DCT UMUPU T880 ADMUM/N0362F240 T880 BATTY
Aircraft B738/M-SDE3FGILRWY/SB1

Departure

Time 2026-04-15 09:49
Airport Brindisi Airport (LIBR)

Arrival

Time N/A
Airport Brussels South Charleroi Airport (EBCI)
Time Latitude Longitude Altitude Speed Heading
2026-04-15 09:20 40.65786 17.94070 43 ft 0 kts 322°
2026-04-15 09:41 40.65785 17.94071 43 ft 2 kts 322°
2026-04-15 09:41 40.65765 17.94090 42 ft 4 kts 323°
2026-04-15 09:41 40.65744 17.94112 43 ft 4 kts 324°
2026-04-15 09:42 40.65722 17.94127 41 ft 4 kts 351°
2026-04-15 09:42 40.65697 17.94124 42 ft 4 kts 29°
2026-04-15 09:42 40.65679 17.94105 43 ft 1 kts 52°
2026-04-15 09:42 40.65690 17.94124 41 ft 4 kts 54°
2026-04-15 09:43 40.65705 17.94151 43 ft 2 kts 52°
2026-04-15 09:43 40.65706 17.94153 43 ft 0 kts 52°
2026-04-15 09:45 40.65714 17.94166 40 ft 6 kts 52°
2026-04-15 09:46 40.65751 17.94229 43 ft 11 kts 52°
2026-04-15 09:46 40.65803 17.94319 42 ft 14 kts 52°
2026-04-15 09:46 40.65858 17.94414 39 ft 7 kts 52°
2026-04-15 09:46 40.65861 17.94418 42 ft 0 kts 52°
2026-04-15 09:47 40.65870 17.94434 40 ft 7 kts 52°
2026-04-15 09:47 40.65922 17.94519 38 ft 16 kts 42°
2026-04-15 09:47 40.65992 17.94500 38 ft 7 kts 317°
2026-04-15 09:48 40.66122 17.94341 39 ft 58 kts 317°
2026-04-15 09:48 40.66584 17.93777 39 ft 122 kts 317°
2026-04-15 09:48 40.67307 17.92837 122 ft 163 kts 315°
2026-04-15 09:48 40.68169 17.91805 621 ft 174 kts 318°
2026-04-15 09:49 40.69139 17.90660 941 ft 200 kts 319°
2026-04-15 09:49 40.70213 17.89402 1335 ft 218 kts 319°
2026-04-15 09:49 40.71395 17.88008 1598 ft 236 kts 318°
2026-04-15 09:49 40.72624 17.86540 2072 ft 243 kts 318°
2026-04-15 09:50 40.73889 17.85024 2642 ft 246 kts 319°
2026-04-15 09:50 40.75151 17.83510 3175 ft 251 kts 319°
2026-04-15 09:50 40.76315 17.81788 3724 ft 255 kts 297°
2026-04-15 09:50 40.76788 17.79494 4099 ft 269 kts 275°
2026-04-15 09:51 40.76820 17.76986 4679 ft 277 kts 266°
2026-04-15 09:51 40.76754 17.74428 5389 ft 280 kts 265°
2026-04-15 09:51 40.76667 17.71855 6151 ft 282 kts 264°
2026-04-15 09:51 40.76583 17.69297 6877 ft 285 kts 265°
2026-04-15 09:52 40.76846 17.66682 7610 ft 294 kts 290°
2026-04-15 09:52 40.77750 17.64248 8425 ft 297 kts 296°
2026-04-15 09:52 40.78717 17.61864 9155 ft 301 kts 296°
2026-04-15 09:52 40.79717 17.59417 9908 ft 305 kts 296°
2026-04-15 09:53 40.80727 17.56926 10534 ft 315 kts 296°
2026-04-15 09:53 40.81793 17.54273 10724 ft 339 kts 296°
2026-04-15 09:53 40.82919 17.51456 11185 ft 352 kts 296°
2026-04-15 09:53 40.84063 17.48587 11882 ft 356 kts 296°
2026-04-15 09:54 40.85219 17.45684 12643 ft 358 kts 296°
2026-04-15 09:54 40.86379 17.42760 13427 ft 360 kts 296°
2026-04-15 09:54 40.87575 17.39860 14335 ft 359 kts 298°
2026-04-15 09:54 40.88808 17.37017 15317 ft 355 kts 298°
2026-04-15 09:55 40.90046 17.34198 16239 ft 354 kts 298°
2026-04-15 09:55 40.91279 17.31391 17121 ft 353 kts 298°
2026-04-15 09:55 40.92112 17.29491 17619 ft 355 kts 298°
2026-04-15 09:55 40.93738 17.25763 18049 ft 353 kts 298°
2026-04-15 09:56 40.94569 17.23847 18060 ft 356 kts 298°
2026-04-15 09:56 40.95777 17.21057 18067 ft 353 kts 298°
2026-04-15 09:56 40.98218 17.15400 18081 ft 351 kts 298°
2026-04-15 09:57 40.99410 17.12635 18079 ft 350 kts 298°
2026-04-15 09:57 41.00615 17.09835 18081 ft 350 kts 298°
2026-04-15 09:57 41.01835 17.06995 18071 ft 350 kts 298°
2026-04-15 09:57 41.03041 17.04186 18080 ft 351 kts 298°
2026-04-15 09:58 41.04229 17.01415 18084 ft 351 kts 298°
2026-04-15 09:58 41.05437 16.98596 18082 ft 352 kts 298°
2026-04-15 09:58 41.06662 16.95738 18077 ft 353 kts 298°
2026-04-15 09:58 41.07856 16.92946 18077 ft 353 kts 298°
2026-04-15 09:59 41.09069 16.90107 18078 ft 354 kts 297°
2026-04-15 09:59 41.10283 16.87264 18071 ft 354 kts 297°
2026-04-15 09:59 41.11496 16.84421 18074 ft 354 kts 297°
2026-04-15 09:59 41.12707 16.81580 18076 ft 355 kts 297°
2026-04-15 10:00 41.13997 16.78782 18075 ft 360 kts 305°
2026-04-15 10:00 41.15733 16.76317 18182 ft 374 kts 317°
2026-04-15 10:00 41.17805 16.74085 18354 ft 394 kts 323°
2026-04-15 10:00 41.20060 16.71841 18563 ft 414 kts 322°
2026-04-15 10:01 41.22407 16.69485 18696 ft 431 kts 322°
2026-04-15 10:01 41.24836 16.67041 18921 ft 444 kts 322°
2026-04-15 10:01 41.27320 16.64532 19216 ft 453 kts 322°
2026-04-15 10:01 41.29849 16.61974 19615 ft 459 kts 322°
2026-04-15 10:02 41.32395 16.59394 20081 ft 462 kts 321°
2026-04-15 10:02 41.34963 16.56787 20576 ft 465 kts 321°
2026-04-15 10:02 41.37538 16.54169 21054 ft 468 kts 321°
2026-04-15 10:02 41.40129 16.51530 21534 ft 470 kts 321°
2026-04-15 10:03 41.42638 16.48974 21948 ft 473 kts 321°
2026-04-15 10:03 41.45263 16.46296 22364 ft 476 kts 321°
2026-04-15 10:03 41.47894 16.43609 22741 ft 479 kts 321°
2026-04-15 10:03 41.50511 16.40935 23102 ft 482 kts 321°
2026-04-15 10:04 41.53201 16.38146 23464 ft 485 kts 319°
2026-04-15 10:04 41.55795 16.35254 23827 ft 487 kts 317°
2026-04-15 10:04 41.58350 16.32275 24211 ft 488 kts 316°
2026-04-15 10:04 41.60854 16.29302 24686 ft 487 kts 316°
2026-04-15 10:05 41.63360 16.26321 25210 ft 486 kts 316°
2026-04-15 10:05 41.65884 16.23330 25721 ft 485 kts 316°
2026-04-15 10:05 41.68415 16.20345 26186 ft 485 kts 317°
2026-04-15 10:05 41.70945 16.17372 26635 ft 485 kts 317°
2026-04-15 10:06 41.73488 16.14391 27082 ft 485 kts 317°
2026-04-15 10:06 41.75996 16.11450 27545 ft 484 kts 317°
2026-04-15 10:06 41.78534 16.08472 27996 ft 484 kts 317°
2026-04-15 10:06 41.81064 16.05500 28444 ft 483 kts 317°
2026-04-15 10:07 41.83589 16.02530 28903 ft 483 kts 317°
2026-04-15 10:07 41.86109 15.99563 29335 ft 482 kts 317°
2026-04-15 10:07 41.88628 15.96592 29733 ft 482 kts 317°
2026-04-15 10:07 41.91144 15.93619 30149 ft 482 kts 317°
2026-04-15 10:08 41.93659 15.90647 30581 ft 481 kts 317°
2026-04-15 10:08 41.96163 15.87684 31082 ft 478 kts 317°
2026-04-15 10:08 41.98648 15.84747 31581 ft 475 kts 317°
2026-04-15 10:08 42.01120 15.81815 32038 ft 472 kts 316°
2026-04-15 10:09 42.03576 15.78897 32448 ft 471 kts 316°
2026-04-15 10:09 42.06028 15.75982 32850 ft 469 kts 316°
2026-04-15 10:09 42.08466 15.73080 33269 ft 467 kts 316°
2026-04-15 10:09 42.10890 15.70192 33654 ft 465 kts 316°
2026-04-15 10:10 42.13306 15.67311 34046 ft 463 kts 316°
2026-04-15 10:10 42.15710 15.64442 34399 ft 461 kts 316°
2026-04-15 10:10 42.18052 15.61644 34728 ft 460 kts 316°
2026-04-15 10:10 42.20498 15.58720 35072 ft 459 kts 316°
2026-04-15 10:11 42.22884 15.55862 35404 ft 458 kts 316°
2026-04-15 10:11 42.25262 15.53011 35707 ft 457 kts 316°
2026-04-15 10:11 42.27635 15.50164 35995 ft 457 kts 316°
2026-04-15 10:11 42.30001 15.47308 36323 ft 455 kts 315°
2026-04-15 10:12 42.32216 15.44269 36598 ft 453 kts 310°
2026-04-15 10:12 42.34304 15.41092 36867 ft 452 kts 309°
2026-04-15 10:12 42.36351 15.37885 37196 ft 449 kts 309°
2026-04-15 10:12 42.38388 15.34699 37509 ft 447 kts 309°
2026-04-15 10:13 42.40437 15.31532 37815 ft 445 kts 310°
2026-04-15 10:13 42.42482 15.28402 38082 ft 444 kts 310°
2026-04-15 10:13 42.44543 15.25264 38058 ft 448 kts 310°
2026-04-15 10:14 42.48667 15.18985 38071 ft 446 kts 310°
2026-04-15 10:14 42.52756 15.12760 38079 ft 440 kts 310°
2026-04-15 10:15 42.56818 15.06570 38090 ft 439 kts 310°
2026-04-15 10:15 42.60871 15.00373 38080 ft 439 kts 310°
2026-04-15 10:16 42.64926 14.94166 38078 ft 439 kts 311°
2026-04-15 10:16 42.68980 14.87943 38073 ft 440 kts 311°
2026-04-15 10:17 42.73037 14.81712 38083 ft 441 kts 311°
2026-04-15 10:17 42.77104 14.75457 38092 ft 441 kts 311°
2026-04-15 10:18 42.81170 14.69188 38088 ft 442 kts 311°
2026-04-15 10:18 42.85240 14.62899 38086 ft 443 kts 311°
2026-04-15 10:19 42.89313 14.56588 38084 ft 443 kts 310°
2026-04-15 10:19 42.93359 14.50310 38085 ft 444 kts 310°
2026-04-15 10:20 42.97430 14.43977 38082 ft 444 kts 311°
2026-04-15 10:20 43.01495 14.37637 38082 ft 443 kts 310°
2026-04-15 10:21 43.05551 14.31297 38080 ft 443 kts 310°
2026-04-15 10:21 43.09597 14.24958 38077 ft 442 kts 310°
2026-04-15 10:22 43.13634 14.18623 38085 ft 441 kts 310°
2026-04-15 10:22 43.17658 14.12298 38086 ft 440 kts 310°
2026-04-15 10:23 43.21676 14.05975 38088 ft 439 kts 310°
2026-04-15 10:23 43.25682 13.99661 38080 ft 439 kts 310°
2026-04-15 10:24 43.29698 13.93365 38089 ft 438 kts 311°
2026-04-15 10:24 43.34010 13.87496 38096 ft 437 kts 324°
2026-04-15 10:25 43.39339 13.83531 38104 ft 436 kts 335°
2026-04-15 10:25 43.44870 13.80083 38091 ft 437 kts 335°
2026-04-15 10:26 43.50401 13.76616 38096 ft 437 kts 335°
2026-04-15 10:26 43.55913 13.73101 38102 ft 437 kts 335°
2026-04-15 10:27 43.61433 13.69551 38101 ft 438 kts 335°
2026-04-15 10:27 43.66954 13.65982 38104 ft 438 kts 334°
2026-04-15 10:28 43.72462 13.62417 38105 ft 439 kts 334°
2026-04-15 10:28 43.77998 13.58828 38099 ft 439 kts 334°
2026-04-15 10:29 43.83530 13.55237 38103 ft 440 kts 334°
2026-04-15 10:29 43.89067 13.51630 38108 ft 440 kts 334°
2026-04-15 10:30 43.94593 13.48022 38112 ft 439 kts 334°
2026-04-15 10:30 44.00124 13.44406 38109 ft 439 kts 334°
2026-04-15 10:31 44.05651 13.40786 38115 ft 439 kts 334°
2026-04-15 10:31 44.11167 13.37166 38119 ft 438 kts 334°
2026-04-15 10:32 44.16634 13.33568 38119 ft 437 kts 334°
2026-04-15 10:32 44.22122 13.29950 38129 ft 436 kts 334°
2026-04-15 10:33 44.27598 13.26336 38127 ft 436 kts 334°
2026-04-15 10:33 44.33075 13.22713 38119 ft 435 kts 334°
2026-04-15 10:34 44.38544 13.19083 38125 ft 435 kts 334°
2026-04-15 10:34 44.44009 13.15449 38129 ft 434 kts 334°
2026-04-15 10:35 44.49458 13.11820 38132 ft 434 kts 334°
2026-04-15 10:35 44.54907 13.08183 38128 ft 433 kts 334°
2026-04-15 10:36 44.60350 13.04542 38129 ft 433 kts 334°
2026-04-15 10:36 44.65743 13.00924 38128 ft 433 kts 334°
2026-04-15 10:37 44.71184 12.97270 38131 ft 433 kts 334°
2026-04-15 10:37 44.76621 12.93614 38128 ft 433 kts 334°
2026-04-15 10:38 44.82053 12.89951 38132 ft 433 kts 334°
2026-04-15 10:38 44.86564 12.86902 38146 ft 432 kts 334°
2026-04-15 10:39 44.91983 12.83233 38132 ft 432 kts 334°
2026-04-15 10:39 44.97399 12.79559 38147 ft 432 kts 334°
2026-04-15 10:40 45.02810 12.75881 38132 ft 431 kts 334°
2026-04-15 10:40 45.08204 12.72206 38138 ft 430 kts 334°
2026-04-15 10:41 45.13596 12.68523 38149 ft 430 kts 334°
2026-04-15 10:41 45.18983 12.64838 38152 ft 430 kts 334°
2026-04-15 10:42 45.24361 12.61152 38146 ft 429 kts 334°
2026-04-15 10:42 45.29737 12.57457 38153 ft 429 kts 334°
2026-04-15 10:43 45.35107 12.53760 38160 ft 429 kts 335°
2026-04-15 10:43 45.40477 12.50054 38155 ft 429 kts 335°
2026-04-15 10:44 45.45840 12.46345 38156 ft 429 kts 335°
2026-04-15 10:44 45.51206 12.42627 38159 ft 428 kts 335°
2026-04-15 10:45 45.56567 12.38904 38157 ft 428 kts 335°
2026-04-15 10:45 45.61904 12.35189 38152 ft 426 kts 335°
2026-04-15 10:46 45.67235 12.31477 38149 ft 426 kts 335°
2026-04-15 10:46 45.72555 12.27757 38160 ft 425 kts 335°
2026-04-15 10:47 45.77858 12.24040 38151 ft 424 kts 335°
2026-04-15 10:47 45.83159 12.20319 38160 ft 424 kts 335°
2026-04-15 10:48 45.88454 12.16593 38166 ft 423 kts 335°
2026-04-15 10:48 45.93741 12.12867 38167 ft 423 kts 335°
2026-04-15 10:49 45.99019 12.09139 38166 ft 422 kts 335°
2026-04-15 10:49 46.04287 12.05409 38180 ft 422 kts 335°
2026-04-15 10:50 46.09559 12.01672 38189 ft 422 kts 335°
2026-04-15 10:50 46.14788 11.97954 38206 ft 422 kts 335°
2026-04-15 10:51 46.20077 11.94184 38217 ft 421 kts 335°
2026-04-15 10:51 46.25299 11.90455 38228 ft 422 kts 335°
2026-04-15 10:52 46.30563 11.86689 38248 ft 423 kts 335°
2026-04-15 10:52 46.35842 11.82903 38233 ft 423 kts 334°
2026-04-15 10:53 46.41119 11.79112 38227 ft 424 kts 335°
2026-04-15 10:53 46.46399 11.75308 38238 ft 424 kts 335°
2026-04-15 10:54 46.51680 11.71498 38218 ft 423 kts 335°
2026-04-15 10:54 46.56951 11.67685 38219 ft 423 kts 335°
2026-04-15 10:55 46.62216 11.63867 38211 ft 422 kts 335°
2026-04-15 10:55 46.67470 11.60050 38204 ft 421 kts 335°
2026-04-15 10:56 46.72702 11.56241 38204 ft 419 kts 335°
2026-04-15 10:56 46.77914 11.52439 38201 ft 418 kts 335°
2026-04-15 10:57 46.83106 11.48641 38195 ft 417 kts 335°
2026-04-15 10:57 46.90842 11.42967 38192 ft 415 kts 335°
2026-04-15 10:58 46.96017 11.39302 38187 ft 412 kts 341°
2026-04-15 10:58 47.01576 11.37564 38190 ft 409 kts 358°
2026-04-15 10:59 47.07249 11.37494 38199 ft 408 kts
2026-04-15 10:59 47.12918 11.37507 38216 ft 408 kts
2026-04-15 11:00 47.18602 11.37482 38210 ft 409 kts 360°
2026-04-15 11:00 47.24302 11.37433 38212 ft 410 kts 360°
2026-04-15 11:01 47.29977 11.37379 38210 ft 411 kts 359°
2026-04-15 11:01 47.35740 11.37316 38208 ft 411 kts 360°
2026-04-15 11:02 47.41421 11.37255 38216 ft 411 kts 359°
2026-04-15 11:02 47.47186 11.37194 38212 ft 411 kts 360°
2026-04-15 11:03 47.52907 11.37137 38197 ft 412 kts 359°
2026-04-15 11:03 47.58639 11.37079 38200 ft 412 kts 359°
2026-04-15 11:04 47.64365 11.37024 38207 ft 411 kts 359°
2026-04-15 11:04 47.70049 11.36962 38197 ft 411 kts 359°
2026-04-15 11:05 47.75796 11.36901 38207 ft 410 kts 359°
2026-04-15 11:05 47.81497 11.36843 38212 ft 409 kts 359°
2026-04-15 11:06 47.87191 11.36678 38209 ft 409 kts 356°
2026-04-15 11:06 47.92850 11.35875 38219 ft 408 kts 354°
2026-04-15 11:07 47.98463 11.34955 38213 ft 408 kts 354°
2026-04-15 11:07 48.04111 11.34069 38216 ft 408 kts 354°
2026-04-15 11:08 48.09753 11.33215 38210 ft 407 kts 354°
2026-04-15 11:08 48.15392 11.32371 38215 ft 407 kts 354°
2026-04-15 11:09 48.21012 11.31531 38210 ft 406 kts 354°
2026-04-15 11:09 48.26594 11.30694 38215 ft 405 kts 354°
2026-04-15 11:10 48.32199 11.29852 38219 ft 404 kts 354°
2026-04-15 11:10 48.37799 11.29008 38222 ft 404 kts 354°
2026-04-15 11:11 48.43385 11.28167 38224 ft 403 kts 354°
2026-04-15 11:11 48.48958 11.27324 38234 ft 403 kts 354°
2026-04-15 11:12 48.54536 11.26477 38240 ft 403 kts 354°
2026-04-15 11:12 48.60111 11.25630 38242 ft 403 kts 354°
2026-04-15 11:13 48.65688 11.24781 38243 ft 403 kts 354°
2026-04-15 11:13 48.71267 11.23928 38238 ft 403 kts 354°
2026-04-15 11:14 48.76841 11.23076 38235 ft 403 kts 354°
2026-04-15 11:14 48.82417 11.22221 38232 ft 403 kts 354°
2026-04-15 11:15 48.88008 11.21759 38247 ft 402 kts 360°
2026-04-15 11:15 48.93610 11.21868 38243 ft 402 kts
2026-04-15 11:16 48.99206 11.21968 38232 ft 402 kts 360°
2026-04-15 11:16 49.04796 11.22013 38244 ft 401 kts 360°
2026-04-15 11:17 49.10381 11.22041 38245 ft 401 kts 359°
2026-04-15 11:17 49.15810 11.22070 38243 ft 401 kts 359°
2026-04-15 11:18 49.21221 11.20586 38254 ft 400 kts 336°
2026-04-15 11:18 49.23634 11.18458 38232 ft 402 kts 324°
2026-04-15 11:18 49.25698 11.15553 38255 ft 405 kts 316°
2026-04-15 11:19 49.29536 11.09234 38239 ft 405 kts 315°
2026-04-15 11:19 49.33386 11.02918 38246 ft 405 kts 316°
2026-04-15 11:20 49.37276 10.96655 38244 ft 405 kts 316°
2026-04-15 11:20 49.41069 10.90246 38244 ft 406 kts 314°
2026-04-15 11:21 49.44680 10.83582 38230 ft 406 kts 313°
2026-04-15 11:21 49.48271 10.76894 38235 ft 405 kts 313°
2026-04-15 11:22 49.51287 10.71307 38243 ft 405 kts 313°
2026-04-15 11:22 49.54858 10.64699 38228 ft 403 kts 313°
2026-04-15 11:23 49.58432 10.58080 38243 ft 402 kts 313°
2026-04-15 11:23 49.61994 10.51473 38244 ft 400 kts 313°
2026-04-15 11:24 49.65538 10.44883 38246 ft 398 kts 313°
2026-04-15 11:24 49.69087 10.38267 38243 ft 396 kts 313°
2026-04-15 11:25 49.72569 10.31761 38235 ft 395 kts 313°
2026-04-15 11:25 49.76059 10.25221 38231 ft 394 kts 313°
2026-04-15 11:26 49.79538 10.18685 38245 ft 392 kts 313°
2026-04-15 11:26 49.82999 10.12167 38245 ft 391 kts 313°
2026-04-15 11:27 49.86447 10.05658 38247 ft 390 kts 313°
2026-04-15 11:27 49.89891 9.99142 38223 ft 390 kts 313°
2026-04-15 11:28 49.93326 9.92624 38244 ft 390 kts 313°
2026-04-15 11:28 49.96765 9.86083 38242 ft 391 kts 313°
2026-04-15 11:29 50.00197 9.79539 38246 ft 391 kts 313°
2026-04-15 11:29 50.03633 9.72967 38229 ft 392 kts 313°
2026-04-15 11:30 50.07068 9.66389 38238 ft 392 kts 313°
2026-04-15 11:30 50.10499 9.59798 38243 ft 392 kts 313°
2026-04-15 11:31 50.13866 9.53312 38245 ft 393 kts 313°
2026-04-15 11:31 50.17275 9.46729 38253 ft 393 kts 313°
2026-04-15 11:32 50.20727 9.40045 38257 ft 393 kts 313°
2026-04-15 11:32 50.24155 9.33393 38251 ft 393 kts 313°
2026-04-15 11:33 50.27586 9.26717 38234 ft 394 kts 312°
2026-04-15 11:33 50.31008 9.20044 38235 ft 393 kts 313°